TimeEDT,TemperatureF,Dew PointF,Humidity,Sea Level PressureIn,VisibilityMPH,Wind Direction,Wind SpeedMPH,Gust SpeedMPH,PrecipitationIn,Events,Conditions,WindDirDegrees,DateUTC
12:15 AM,73.4,69.8,88,29.94,10.0,Calm,Calm,-,N/A,,Mostly Cloudy,0,2013-07-01 04:15:00
12:51 AM,73.9,68.9,84,30.66,10.0,Calm,Calm,-,N/A,,Overcast,0,2013-07-01 04:51:00
1:51 AM,73.9,68.9,84,30.66,10.0,Calm,Calm,-,N/A,,Overcast,0,2013-07-01 05:51:00
2:05 AM,73.4,69.8,88,29.95,10.0,Variable,3.5,-,N/A,,Scattered Clouds,0,2013-07-01 06:05:00
2:51 AM,72.9,68.9,87,30.66,10.0,Calm,Calm,-,N/A,,Clear,0,2013-07-01 06:51:00
3:51 AM,70.9,68.0,91,30.66,10.0,Calm,Calm,-,N/A,,Clear,0,2013-07-01 07:51:00
4:51 AM,70.0,68.0,93,30.67,10.0,Calm,Calm,-,N/A,,Clear,0,2013-07-01 08:51:00
5:51 AM,70.9,68.9,93,30.69,10.0,Calm,Calm,-,N/A,,Scattered Clouds,0,2013-07-01 09:51:00
6:51 AM,72.9,70.0,91,30.71,10.0,Calm,Calm,-,N/A,,Mostly Cloudy,0,2013-07-01 10:51:00
7:51 AM,74.8,70.0,85,30.71,10.0,Calm,Calm,-,N/A,,Clear,0,2013-07-01 11:51:00
8:51 AM,77.0,70.0,79,30.73,10.0,Calm,Calm,-,N/A,,Mostly Cloudy,0,2013-07-01 12:51:00
9:51 AM,77.0,70.0,79,30.73,10.0,Calm,Calm,-,N/A,,Overcast,0,2013-07-01 13:51:00
10:51 AM,77.0,70.0,79,30.74,10.0,Calm,Calm,-,N/A,,Overcast,0,2013-07-01 14:51:00
11:51 AM,79.0,70.0,74,30.73,10.0,Calm,Calm,-,N/A,,Scattered Clouds,0,2013-07-01 15:51:00
12:16 PM,78.8,69.8,74,30.01,10.0,Calm,Calm,-,N/A,,Mostly Cloudy,0,2013-07-01 16:16:00
12:24 PM,78.8,71.6,78,30.01,4.0,Calm,Calm,-,0.00,Rain,Light Rain,0,2013-07-01 16:24:00
12:51 PM,75.9,72.0,87,30.72,0.8,Calm,Calm,-,0.06,Rain,Heavy Rain,0,2013-07-01 16:51:00
12:55 PM,75.2,71.6,89,30.01,7.0,Calm,Calm,-,0.02,Rain,Heavy Rain,0,2013-07-01 16:55:00
1:06 PM,73.4,71.6,94,30.03,7.0,WSW,5.8,-,0.27,Rain,Heavy Rain,250,2013-07-01 17:06:00
1:16 PM,71.6,69.8,94,30.03,7.0,Calm,Calm,-,0.57,Rain,Heavy Rain,0,2013-07-01 17:16:00
1:27 PM,71.6,69.8,94,30.03,7.0,Calm,Calm,-,0.62,Rain-Thunderstorm,Heavy Thunderstorms and Rain,0,2013-07-01 17:27:00
1:41 PM,71.6,69.8,94,30.02,7.0,Calm,Calm,-,0.69,Rain,Heavy Rain,0,2013-07-01 17:41:00
1:51 PM,70.9,68.9,93,30.75,3.0,Calm,Calm,-,0.71,Rain,Rain,0,2013-07-01 17:51:00
2:51 PM,72.0,70.9,96,30.75,-9999.0,Calm,Calm,-,0.16,Rain,Rain,0,2013-07-01 18:51:00
2:58 PM,71.6,71.6,100,30.03,1.8,Calm,Calm,-,0.03,Rain,Heavy Rain,0,2013-07-01 18:58:00
3:51 PM,72.9,70.9,93,30.74,4.0,Calm,Calm,-,0.12,Rain,Light Rain,0,2013-07-01 19:51:00
3:58 PM,73.4,71.6,94,30.02,3.0,Calm,Calm,-,0.01,Rain,Light Rain,0,2013-07-01 19:58:00
4:51 PM,73.9,72.0,93,30.74,5.0,Calm,Calm,-,0.02,Rain,Light Rain,0,2013-07-01 20:51:00
5:51 PM,73.9,72.0,93,30.74,5.0,Calm,Calm,-,0.00,,Overcast,0,2013-07-01 21:51:00
6:51 PM,73.9,70.9,90,30.75,5.0,Calm,Calm,-,0.00,,Overcast,0,2013-07-01 22:51:00
7:51 PM,72.9,70.9,93,30.77,2.0,South,3.5,-,0.06,Rain,Heavy Rain,180,2013-07-01 23:51:00
7:53 PM,73.4,71.6,94,30.05,0.8,Calm,Calm,-,0.03,Rain,Heavy Rain,0,2013-07-01 23:53:00
8:00 PM,73.4,71.6,94,30.04,1.2,Calm,Calm,-,0.13,Rain,Heavy Rain,0,2013-07-02 00:00:00
8:37 PM,73.4,71.6,94,30.05,2.0,Calm,Calm,-,0.14,,Overcast,0,2013-07-02 00:37:00
8:51 PM,72.9,72.0,97,30.77,2.5,ESE,6.9,-,0.19,Rain,Light Rain,120,2013-07-02 00:51:00
9:02 PM,73.4,71.6,94,30.06,2.5,Calm,Calm,-,0.03,Rain,Light Rain,0,2013-07-02 01:02:00
9:09 PM,73.4,71.6,94,30.06,8.0,Calm,Calm,-,0.03,Rain,Light Rain,0,2013-07-02 01:09:00
9:43 PM,73.4,71.6,94,30.07,10.0,Calm,Calm,-,0.03,,Mostly Cloudy,0,2013-07-02 01:43:00
9:51 PM,72.9,72.0,97,30.79,10.0,Calm,Calm,-,0.03,,Scattered Clouds,0,2013-07-02 01:51:00
10:51 PM,72.9,72.0,97,30.80,10.0,Calm,Calm,-,N/A,,Overcast,0,2013-07-02 02:51:00
11:15 PM,73.4,71.6,94,30.07,10.0,Calm,Calm,-,N/A,,Mostly Cloudy,0,2013-07-02 03:15:00
11:51 PM,72.9,72.0,97,30.79,10.0,Calm,Calm,-,N/A,,Mostly Cloudy,0,2013-07-02 03:51:00